FALCON 9 R/B, 58996

Orbit data source: Space-Track

FALCON 9 R/B, 58996 is space debris in HEO originally from a launch on Tue, 20 Feb 2024 UTC launched from the Air Force Eastern Test Range (AFETR). Debris objects in space refer to the collection of defunct objects orbiting the Earth. Examples of debris include non-operational satellites, rocket bodies, and fragments generated from explosions, collisions, or faulty payload assembly.

Loading next visibility...
Identifier
58996, 2024-035B
Orbit
HEO
Country
Flag of USUS
Related business
Manufacturer
SpaceX
Mission
Spacecraft
Bus & Motor
F9ST2, Unknown motor
Mass
~4,000 kg wet, ~4,000 kg dry
Launch date (UTC)
2024-02-20 (2 years ago)
Launch vehicle
Unknown
Launch site
Air Force Eastern Test Range (AFETR)
Object type
Payload
Rocket body
Debris
Shape & HBR
Cyl, 7.8 m
Radar Cross Section
39.980 m², Large (>1 m²)

Expand to show TLE details & history
Last TLE update: 3 days ago

TLE from 3 days ago
0 FALCON 9 R/B
1 58996U 24035B   25256.07313792 -.00000032  00000-0  18332-2 0  9998
2 58996  18.9814 161.8423 7975752  45.2943 356.4576  1.39513323  7939
Epoch: 2025-09-13T01:45Z
TLE epoch observation values (Epoch: 2025-09-13T01:45:19.116Z)
Latitude
0.00012°
Longitude
143.43969°
Altitude
1,471.814 km
Speed
9.474 km/s
True Right ascension
10h 48m 19s
True Declination
0° 00' 00"
Sunlit
Object was in daylight at epoch
Visualization orbit readout
Latitude
Unknown
Longitude
Unknown
Altitude
Unknown
Speed
Unknown
Apparent Right ascension
Unknown
Apparent Declination
Unknown
Sunlit
N/A
Visualization observer readout
Local Sidereal Time
07:52:57
Azimuth
Unknown
Elevation
Unknown
Doppler factor
Unknown
Orbital elements
Apogee altitude
54,446.021 km
Perigee altitude
471.267 km
Semi-major axis
33,836.781 km
Eccentricity
0.79758
Inclination
18.9814°
RAAN
161.8423°
Arg. of periapsis
45.2943°
True anomaly
313.03289°
Mean anomaly
356.4576°
Eccentric anomaly
343.40976°
Mean motion
0.34871 °/min
Orbital period
1,032.39 mins
BSTAR
0.0018332
Loading maneuver chart data...
Computing Atmospheric mass density...
Loading historical data...
Loading historical data...
Loading historical data...
Loading historical data...
Loading historical data...
Loading historical data...
Loading historical data...
Other satellites on launch #35 in the year 2024 (2024-02-20 UTC)

Documentation

Showing up to 5 results
|